Beaufort, NC

10:10 AM EDT on September 16, 2019 (GMT -0400)
Smith

Weather History for KMRH - May, 2019

Change the Weather History Date:

Friday, May 24, 2019

  Actual Average Record
Temperature  
Mean Temperature 80 °F -  
Max Temperature 87 °F 79 °F 87 °F (1992)
Min Temperature 73 °F 63 °F 45 °F (1961)
Cooling Degree Days 15    
Growing Degree Days 30 (Base 50)    
Moisture  
Dew Point 69 °F    
Average Humidity 71    
Maximum Humidity 85    
Minimum Humidity 54    
Precipitation  
Precipitation 0.00 in - - ()
Sea Level Pressure  
Sea Level Pressure 30.06 in    
Wind  
Wind Speed 13 mph (WSW)    
Max Wind Speed 18 mph    
Max Gust Speed 25 mph    
Visibility 10 miles    
Events      
Averages and records for this station are not official NWS values.
T = Trace of Precipitation, MM = Missing Value Source: NWS Daily Summary

Daily Weather History Graph

Daily Weather History Graph

Search for Another Location

Airport or City:

Astronomy

May. 24, 2019 Rise Set
Actual Time 5:58 AM EDT 8:09 PM EDT
Civil Twilight 5:29 AM EDT 8:37 PM EDT
Nautical Twilight 4:54 AM EDT 9:12 PM EDT
Astronomical Twilight 4:16 AM EDT 9:50 PM EDT
Moon 12:33 AM EDT (5/24) 10:55 AM EDT (5/24)
Length of Visible Light 15h 08m
Length of Day
14h 11m
Waning Gibbous, 69% of the Moon is Illuminated
May 24
Waning Gibbous
May 26
Last Quarter
Jun 3
New
Jun 10
First Quarter
Jun 17
Full

Hourly Weather History & Observations

Time (EDT) Temp. Heat Index Dew Point Humidity Pressure Visibility Wind Dir Wind Speed Gust Speed Precip Events Conditions
12:58 AM 75.0 °F - 68.0 °F 79% 30.13 in 10.0 mi SW 15.0 mph - N/A   Clear
1:58 AM 75.0 °F - 69.1 °F 82% 30.11 in 10.0 mi WSW 12.7 mph - N/A   Clear
2:58 AM 75.0 °F - 69.1 °F 82% 30.09 in 10.0 mi WSW 12.7 mph - N/A   Clear
3:58 AM 75.0 °F - 70.0 °F 84% 30.09 in 10.0 mi WSW 11.5 mph - N/A   Clear
4:58 AM 73.9 °F - 69.1 °F 85% 30.08 in 10.0 mi WSW 12.7 mph - N/A   Clear
5:58 AM 73.9 °F - 69.1 °F 85% 30.09 in 10.0 mi WSW 9.2 mph - N/A   Clear
6:58 AM 73.9 °F - 68.0 °F 82% 30.09 in 10.0 mi WSW 18.4 mph 25.3 mph N/A   Clear
7:58 AM 75.9 °F - 69.1 °F 79% 30.08 in 10.0 mi WSW 16.1 mph 21.9 mph N/A   Clear
8:58 AM 78.1 °F - 69.1 °F 74% 30.08 in 10.0 mi WSW 13.8 mph - N/A   Clear
9:58 AM 80.1 °F 83.2 °F 70.0 °F 71% 30.07 in 10.0 mi WSW 13.8 mph - N/A   Clear
10:58 AM 82.9 °F 87.5 °F 71.1 °F 67% 30.06 in 10.0 mi WSW 12.7 mph - N/A   Clear
11:58 AM 82.9 °F 87.5 °F 71.1 °F 67% 30.05 in 10.0 mi WSW 12.7 mph - N/A   Clear
12:58 PM 86.0 °F 92.2 °F 72.0 °F 63% 30.04 in 10.0 mi WSW 15.0 mph - N/A   Clear
1:58 PM 86.0 °F 91.5 °F 71.1 °F 61% 30.01 in 10.0 mi SW 15.0 mph - N/A   Clear
2:58 PM 84.9 °F 90.7 °F 72.0 °F 65% 30.00 in 10.0 mi SW 16.1 mph - N/A   Clear
3:58 PM 87.1 °F 93.6 °F 72.0 °F 61% 29.99 in 10.0 mi WSW 12.7 mph - N/A   Clear
4:58 PM 84.0 °F 89.6 °F 72.0 °F 67% 29.99 in 10.0 mi SW 9.2 mph - N/A   Partly Cloudy
5:58 PM 82.9 °F 88.0 °F 72.0 °F 69% 29.99 in 10.0 mi WSW 13.8 mph - N/A   Clear
6:58 PM 82.9 °F 87.5 °F 71.1 °F 67% 30.00 in 10.0 mi WSW 9.2 mph - N/A   Scattered Clouds
7:58 PM 82.0 °F 86.7 °F 72.0 °F 71% 30.02 in 10.0 mi Variable 5.8 mph - N/A   Clear
8:58 PM 79.0 °F - 71.1 °F 77% 30.04 in 10.0 mi ENE 9.2 mph - N/A   Clear
9:58 PM 78.1 °F - 66.0 °F 66% 30.06 in 10.0 mi ENE 10.4 mph 18.4 mph N/A   Clear
10:58 PM 78.1 °F - 61.0 °F 56% 30.09 in 10.0 mi ENE 12.7 mph 20.7 mph N/A   Clear
11:58 PM 78.1 °F - 60.1 °F 54% 30.09 in 10.0 mi ENE 10.4 mph - N/A   Clear